Terug naar catalogus

CZ-3B DEB

ActiefGTO
NORAD 40158·DEBRIS·🇨🇳 China

Gelanceerd Sep 4, 2010 vanaf Xichang Satellite Launch Center

Loading…

TLE

VerouderdSource: Space-Track

Epoch: Sep 7, 2026, 00:23 UTC

1 40158U 10042K   26250.01644302 -.00000104  00000-0  00000-0 0  9996
2 40158  25.3885 193.7018 7328209 116.1327 355.1952  1.88761202 88294

Volg CZ-3B DEB in realtime met AllMySat

Download on the App Store